Weather History for Charlotte, MI

Change the Weather History Date:

Saturday, December 1, 2012

  Actual Average (KLAN) Record (KLAN)
Temperature  
Mean Temperature 47 °F 33 °F  
Max Temperature 59 °F 39 °F 65 °F (1970)
Min Temperature 35 °F 27 °F -1 °F (1886)
Degree Days  
Heating Degree Days 18 32  
Month to date heating degree days 32  
Since 1 July heating degree days 1446  
Cooling Degree Days 0 0  
Month to date cooling degree days 0  
Year to date cooling degree days 625  
Moisture  
Dew Point 41 °F    
Average Humidity 88    
Maximum Humidity 99    
Minimum Humidity 63    
Precipitation  
Precipitation 0.00 in 0.07 in 0.96 in (2006)
Month to date precipitation 0.07  
Year to date precipitation 29.97  
Snow  
Snow 0.00 in 0.30 in 6.20 in (1974)
Month to date snowfall 0.3  
Since 1 July snowfall 4.1  
Snow Depth -    
Sea Level Pressure  
Sea Level Pressure 30.11 in    
Wind  
Wind Speed 7 mph (SSE)    
Max Wind Speed 18 mph    
Max Gust Speed 28 mph    
Visibility 5 miles    
Events      
T = Trace of Precipitation, MM = Missing Value Source: NWS Daily Summary

Daily Weather History Graph

Daily Weather History Graph

Search for Another Location

Airport:

Trip Planner

Search our weather history database for the weather conditions in past years. The results will help you decide how hot, cold, wet, or windy it might be!

Date:

Astronomy

Dec. 01, 2012 Rise Set
Actual Time 7:49 AM EST 5:06 PM EST
Civil Twilight 7:18 AM EST 5:38 PM EST
Nautical Twilight 6:43 AM EST 6:13 PM EST
Astronomical Twilight 6:09 AM EST 6:47 PM EST
Moon 7:57 PM EST (12/1) 10:01 AM EST (12/1)
Length of Visible Light 10h 19m
Length of Day
9h 16m
Waning Gibbous, 92% of the Moon is Illuminated
Dec 1
Waning Gibbous
Dec 6
Last Quarter
Dec 13
New
Dec 20
First Quarter
Dec 28
Full

Hourly Weather History & Observations

Time (EST) Temp. Windchill Dew Point Humidity Pressure Visibility Wind Dir Wind Speed Gust Speed Precip Events Conditions
12:16 AM 37.4 °F 32.1 °F 35.1 °F 91% 30.20 in 5.0 mi East 6.9 mph - N/A   Overcast
12:35 AM 37.2 °F 33.6 °F 35.1 °F 92% 30.19 in 5.0 mi ESE 4.6 mph - N/A   Overcast
12:56 AM 37.0 °F 33.3 °F 35.1 °F 93% 30.20 in 5.0 mi East 4.6 mph - N/A   Overcast
1:16 AM 37.0 °F 33.3 °F 35.2 °F 93% 30.19 in 5.0 mi ESE 4.6 mph - N/A   Overcast
1:35 AM 37.0 °F 31.6 °F 35.2 °F 93% 30.18 in 5.0 mi ESE 6.9 mph - N/A   Overcast
1:56 AM 37.0 °F 32.4 °F 35.2 °F 93% 30.19 in 4.0 mi SE 5.8 mph - N/A   Overcast
2:15 AM 37.0 °F 31.0 °F 35.6 °F 95% 30.20 in 4.0 mi ESE 8.1 mph - N/A   Overcast
2:36 AM 36.9 °F 34.3 °F 35.4 °F 95% 30.21 in 4.0 mi ESE 3.5 mph - N/A   Overcast
2:55 AM 36.9 °F 33.1 °F 35.2 °F 94% 30.21 in 4.0 mi SE 4.6 mph - N/A   Overcast
3:16 AM 36.7 °F 32.9 °F 35.2 °F 95% 30.21 in 4.0 mi ESE 4.6 mph - N/A   Overcast
4:16 AM 36.0 °F 31.1 °F 34.9 °F 96% 30.20 in 3.0 mi ESE 5.8 mph - N/A   Overcast
4:35 AM 35.8 °F 28.8 °F 34.9 °F 97% 30.20 in 3.0 mi ESE 9.2 mph - N/A   Overcast
5:16 AM 36.0 °F 31.1 °F 35.2 °F 97% 30.20 in 2.0 mi SE 5.8 mph - N/A   Overcast
5:35 AM 36.0 °F 32.1 °F 35.6 °F 99% 30.20 in 2.0 mi SE 4.6 mph - N/A   Overcast
5:56 AM 36.1 °F 30.6 °F 35.6 °F 98% 30.19 in 2.0 mi SE 6.9 mph - N/A   Overcast
6:15 AM 36.5 °F 31.0 °F 36.0 °F 98% 30.18 in 1.5 mi SE 6.9 mph - N/A   Overcast
7:36 AM 37.2 °F 33.6 °F 36.7 °F 98% 30.19 in 1.5 mi SE 4.6 mph - N/A   Overcast
8:16 AM 37.6 °F 34.0 °F 37.4 °F 99% 30.20 in 1.0 mi SE 4.6 mph - N/A   Overcast
8:36 AM 37.8 °F 33.3 °F 37.6 °F 99% 30.20 in 1.0 mi SE 5.8 mph - N/A   Overcast
9:15 AM 38.3 °F 33.2 °F 37.8 °F 98% 30.18 in 1.0 mi SE 6.9 mph - N/A   Overcast
9:36 AM 38.3 °F 32.5 °F 37.9 °F 99% 30.18 in 1.2 mi SE 8.1 mph - N/A   Overcast
9:56 AM 38.5 °F 33.4 °F 38.3 °F 99% 30.17 in 1.5 mi SE 6.9 mph - N/A   Overcast
10:16 AM 38.8 °F 32.1 °F 38.5 °F 99% 30.17 in 1.5 mi SE 10.4 mph - N/A   Overcast
10:36 AM 39.2 °F 34.2 °F 38.7 °F 98% 30.17 in 1.8 mi SE 6.9 mph - N/A   Overcast
10:55 AM 39.6 °F 36.3 °F 39.2 °F 99% 30.17 in 2.0 mi SSE 4.6 mph - N/A   Overcast
11:16 AM 40.5 °F 35.1 °F 39.7 °F 97% 30.17 in 2.5 mi SSE 8.1 mph - N/A   Overcast
11:36 AM 40.8 °F 35.6 °F 39.9 °F 97% 30.16 in 2.5 mi SSE 8.1 mph - N/A   Overcast
11:56 AM 41.2 °F 36.0 °F 40.1 °F 96% 30.14 in 3.0 mi SSE 8.1 mph - N/A   Overcast
12:15 PM 42.1 °F 37.1 °F 40.6 °F 95% 30.13 in 3.0 mi SE 8.1 mph - N/A   Overcast
12:36 PM 42.6 °F 37.2 °F 40.8 °F 93% 30.12 in 3.0 mi SSE 9.2 mph - N/A   Overcast
12:55 PM 43.2 °F 39.7 °F 41.2 °F 93% 30.11 in 3.0 mi SSE 5.8 mph - N/A   Overcast
1:16 PM 44.8 °F 41.0 °F 41.9 °F 90% 30.10 in 4.0 mi SE 6.9 mph - N/A   Overcast
1:22 PM 45.0 °F 40.1 °F 41.9 °F 89% 30.10 in 4.0 mi SE 9.2 mph - N/A   Overcast
1:57 PM 46.4 °F 42.9 °F 42.8 °F 87% 30.07 in 4.0 mi SE 6.9 mph - N/A   Scattered Clouds
2:17 PM 48.2 °F - 42.8 °F 82% 30.07 in 4.0 mi South 8.1 mph - N/A   Haze
2:37 PM 48.2 °F - 42.8 °F 82% 30.06 in 4.0 mi SSE 6.9 mph - N/A   Haze
2:57 PM 50.0 °F - 42.8 °F 76% 30.05 in 4.0 mi SSE 9.2 mph - N/A   Haze
3:37 PM 50.0 °F - 44.6 °F 82% - 5.0 mi South 10.4 mph - N/A   Haze
3:57 PM - - - N/A% - - North - - N/A   Unknown
4:17 PM 50.0 °F - 44.6 °F 82% 30.04 in 5.0 mi South 6.9 mph - N/A   Haze
4:37 PM 50.0 °F - 44.6 °F 82% 30.03 in 5.0 mi SSE 5.8 mph - N/A   Haze
4:57 PM 51.8 °F - - N/A% - 5.0 mi SSE 5.8 mph - N/A   Haze
5:17 PM 51.8 °F - 46.4 °F 82% 30.02 in 5.0 mi South 6.9 mph - N/A   Haze
5:37 PM 51.8 °F - 46.4 °F 82% 30.02 in 7.0 mi South 8.1 mph - N/A   Overcast
5:57 PM 53.6 °F - 46.4 °F 77% 30.01 in 7.0 mi South 6.9 mph - N/A   Overcast
6:17 PM 53.6 °F - 46.4 °F 77% 30.01 in 7.0 mi South 8.1 mph - N/A   Overcast
6:57 PM 53.6 °F - 46.4 °F 77% 29.99 in 7.0 mi South 6.9 mph - N/A   Overcast
7:16 PM 53.6 °F - 48.2 °F 82% 29.99 in 7.0 mi South 8.1 mph - N/A   Overcast
7:37 PM 55.4 °F - 48.2 °F 77% 29.98 in 7.0 mi South 10.4 mph - N/A   Overcast
7:56 PM 55.4 °F - 48.2 °F 77% 29.97 in 7.0 mi South 9.2 mph 17.3 mph N/A   Mostly Cloudy
8:17 PM - - - N/A% - - North - - N/A   Unknown
8:56 PM 57.2 °F - 48.2 °F 72% 29.96 in 10.0 mi South 15.0 mph 20.7 mph N/A   Overcast
9:16 PM 57.2 °F - 48.2 °F 72% 29.95 in 10.0 mi SSW 15.0 mph 23.0 mph N/A   Overcast
9:37 PM 57.2 °F - - N/A% - 10.0 mi SSW 18.4 mph 27.6 mph N/A   Overcast
9:56 PM 57.2 °F - 48.2 °F 72% 29.94 in 10.0 mi SSW 16.1 mph 25.3 mph N/A   Overcast
10:16 PM 57.2 °F - 46.4 °F 67% 29.93 in 10.0 mi SSW 17.3 mph 26.5 mph N/A   Mostly Cloudy
10:36 PM 59.0 °F - 46.4 °F 63% 29.94 in 10.0 mi SSW 15.0 mph 26.5 mph N/A   Mostly Cloudy
10:56 PM 59.0 °F - 46.4 °F 63% 29.94 in 10.0 mi SSW 16.1 mph 20.7 mph N/A   Overcast
11:16 PM 59.0 °F - 46.4 °F 63% 29.94 in 10.0 mi SSW 18.4 mph 24.2 mph N/A   Overcast